    Observer details:
    291 LPL/Spacewatch II.  Observer J. V. Scotti.  1.8-m f/2.7 reflector + CCD.
    568 Mauna Kea.  Observers R. Wainscoat, C. Crowder, A. Petric.  Measurers
        R. Weryk, R. Wainscoat.  3.6-m Canada-France-Hawaii Telescope + CCD.
    587 Sormano.  Observers P. Sicoli, A. Testa.  Measurer P. Sicoli.  0.5-m f/6.8
        reflector + CCD.
    691 Steward Observatory, Kitt Peak.  Observer M. T. Read.  0.9-m f/3 reflector
        + CCD.
    703 Catalina Sky Survey.  Observer G. J. Leonard.  Measurers B. M. Africano,
        E. J. Christensen, D. C. Fuls, A. R. Gibbs, A. D. Grauer, H. Groeller,
        J. A. Johnson, R. A. Kowalski, S. M. Larson, G. J. Leonard, R. L. Seaman,
        F. C. Shelly.  0.68-m Schmidt + 10K CCD.
    711 McDonald Observatory.  Observer J. G. Ries.  2.1-m reflector + CCD + focal
        reducer.
    A77 Observatoire Chante-Perdrix, Dauban.  Observer J.-F. Soulier.  0.20-m f/4
        Newtonian reflector + CCD.
    B96 Brixiis Observatory, Kruibeke.  Observer E. Bryssinck.  0.4-m f/3.8
        astrograph + CCD.
    F51 Pan-STARRS 1, Haleakala.  Observers J. Bulger, T. Lowe, A. Schultz,
        M. Willman.  Measurers K. Chambers, S. Chastel, L. Denneau, H. Flewelling,
        M. Huber, E. Magnier, Y. Ramanjooloo, R. Wainscoat, C. Waters, R. Weryk.
        1.8-m Ritchey-Chretien + CCD.
    F52 Pan-STARRS 2, Haleakala.  Observers J. Bulger, T. Lowe, A. Schultz,
        M. Willman.  Measurers K. Chambers, S. Chastel, L. Denneau, H. Flewelling,
        M. Huber, E. Magnier, Y. Ramanjooloo, R. Wainscoat, C. Waters, R. Weryk.
        1.8-m Ritchey-Chretien + CCD.
    G96 Mt. Lemmon Survey.  Observer D. C. Fuls.  Measurers B. M. Africano,
        E. J. Christensen, D. C. Fuls, A. R. Gibbs, A. D. Grauer, H. Groeller,
        J. A. Johnson, R. A. Kowalski, S. M. Larson, G. J. Leonard, R. L. Seaman,
        F. C. Shelly.  1.5-m reflector + 10K CCD.
    I41 Palomar Mountain--ZTF.  Observer A. U. Tomatic.  Measurers Q.-Z. Ye,
        F. Masci.  1.2-m Schmidt + ZTF camera, 1.2-m f/2.4 Schmidt + ZTF camera.
    I52 Steward Observatory, Mt. Lemmon Station.  Observers D. C. Fuls,
        B. M. Africano, G. J. Leonard.  Measurers B. M. Africano,
        E. J. Christensen, D. C. Fuls, A. R. Gibbs, A. D. Grauer, H. Groeller,
        J. A. Johnson, R. A. Kowalski, S. M. Larson, G. J. Leonard, R. L. Seaman,
        F. C. Shelly.  1.0-m reflector + CCD.
    L01 Visnjan Observatory, Tican.  Observer K. Korlevic.  1.0-m f/2.9 reflector
        + CCD.
    U69 iTelescope SRO Observatory, Auberry.  Observer H. Sato.  0.61-m f/6.5
        astrograph + CCD.
    V06 Catalina Sky Survey-Kuiper.  Observer D. C. Fuls.  Measurers
        E. J. Christensen, D. C. Fuls, A. R. Gibbs, A. D. Grauer, J. A. Johnson,
        R. A. Kowalski, S. M. Larson, G. J. Leonard, R. G. Matheny, R. L. Seaman,
        F. C. Shelly.  1.55-m reflector + CCD.
    
    Orbital elements:
        P/2018 L4 (PANSTARRS)
    Epoch 2018 July 21.0 TT = JDT 2458320.5
    T 2018 July 31.76006 TT                                 MPCW
    q   1.6764108            (2000.0)            P               Q
    n   0.09017579     Peri.  140.35638     +0.30708417     +0.91672356
    a   4.9250359      Node   145.21941     -0.94653813     +0.32208943
    e   0.6596145      Incl.   26.61738     -0.09881740     -0.23638171
    P  10.93
    From 79 observations 2018 May 19-June 22, mean residual 0".5.
    
        P/2018 L4 (PANSTARRS)
    Epoch 2029 July 3.0 TT = JDT 2462320.5
    T 2029 July 10.76306 TT                                 MPCW
    q   1.7566734            (2000.0)            P               Q
    n   0.08658454     Peri.  138.48374     +0.27206461     +0.92794074
    a   5.0602949      Node   144.96311     -0.95761962     +0.28710815
    e   0.6528516      Incl.   26.34447     -0.09458070     -0.23768656
    P  11.38
    From 79 observations 2018 May 19-June 22, mean residual 0".5.
    
        P/2018 L4 (PANSTARRS)
    Epoch 2018 Mar. 23.0 TT = JDT 2458200.5
    T 2018 July 31.75752 TT                                 MPCW
    q   1.6763874            (2000.0)            P               Q
    n   0.09014814     Peri.  140.35046     +0.30709373     +0.91673298
    a   4.9260429      Node   145.22605     -0.94653872     +0.32208897
    e   0.6596888      Incl.   26.61708     -0.09878207     -0.23634581
    P  10.93
    From 79 observations 2018 May 19-June 22, mean residual 0".5.
    
    Ephemeris:
        P/2018 L4 (PANSTARRS)
    Date    TT    R. A. (2000) Decl.     Delta      r     Elong.  Phase   m1    m2
    2018 05 23    17 29 44.6 +27 39 21   1.0370  1.8340   127.0    26.2  20.2
    ...
    2018 06 07    17 27 22.4 +28 25 53   0.9575  1.7760   128.4    26.6  19.9
    ...
    2018 06 15    17 25 00.3 +27 52 07   0.9240  1.7499   128.8    26.9  19.8
    ...
    2018 06 21    17 23 11.8 +26 56 16   0.9030  1.7327   129.0    27.1  19.7
    2018 06 22    17 22 55.0 +26 44 21   0.8999  1.7300   129.0    27.2  19.7
    2018 06 23    17 22 38.8 +26 31 41   0.8969  1.7274   129.0    27.2  19.6
    ...
    2018 06 29    17 21 17.3 +24 59 58   0.8809  1.7131   128.9    27.5  19.6
    ...
    2018 07 07    17 20 29.5 +22 16 57   0.8660  1.6975   128.6    27.9  19.5
    ...
    2018 07 22    17 23 40.4 +15 21 33   0.8610  1.6797   126.8    29.0  19.4
    
    Gareth V. Williams           (C) Copyright 2018 MPC           M.P.E.C. 2018-M83
    

    Read MPEC 2018-M82 Read MPEC 2018-M84


    MPEC number:

    Enter an MPEC number in one of the following forms:

    • 1997-B01 (the full form)
    • J97B01 (the packed version of the full form)
    • B01 (the abbreviated form)